EHI
17 16 16 16 16 15 17 21 21 15 10 6 4 2 1 0 0 0 0 0 0 0 0 0 0 0 0 0 0 0 0 0 0 0 0 0 0 0 0 0 0 0 0
19 17 16 16 15 14 16 19 19 14 8 5 4 2 1 0 0 0 0 0 0 0 0 0 0 0 0 0 0 0 0 0 0 0 0 0 0 0 0 0 0 0 0
21 20 18 17 16 15 15 16 15 12 8 5 3 1 0 0 0 0 0 0 0 0 0 0 0 0 0 0 0 0 0 0 0 0 0 0 0 0 0 0 0 0 0
21 21 19 18 17 15 13 11 10 8 6 4 2 1 0 0 0 0 0 0 0 0 0 0 0 0 0 0 0 0 0 0 0 0 0 0 0 0 0 0 0 0 0
20 19 18 17 16 14 10 7 5 4 2 1 1 0 0 0 0 0 0 0 0 0 0 0 0 0 0 0 0 0 0 0 0 0 0 0 0 0 0 0 0 0 0
19 18 16 15 15 13 9 5 3 2 1 0 0 0 0 0 0 0 0 0 0 0 0 0 0 0 0 0 0 0 0 0 0 0 0 0 0 0 0 0 0 0 0
16 17 16 16 16 15 12 9 6 4 2 0 0 0 0 0 0 0 0 0 0 0 0 0 0 0 0 0 0 0 0 0 0 0 0 0 0 0 0 0 0 0 0
14 15 15 16 17 16 16 15 11 7 3 1 0 0 0 0 0 0 0 0 0 0 0 0 0 0 0 0 0 0 0 0 0 0 0 0 0 0 0 0 0 0 0
11 13 14 16 16 17 19 19 16 11 6 3 1 0 0 0 0 0 0 0 0 0 0 0 0 0 0 0 0 0 0 0 0 0 0 0 0 0 0 0 0 0 0
9 10 13 15 16 17 19 20 17 13 8 5 2 0 0 0 0 0 0 0 0 0 0 0 0 0 0 0 0 0 0 0 0 0 0 0 0 0 0 0 0 0 0
6 9 12 14 14 16 19 19 17 13 10 7 3 1 1 2 1 0 0 0 0 0 0 0 0 0 0 0 0 0 0 0 0 0 0 0 0 0 0 0 0 0 0
4 8 13 14 13 15 19 20 17 14 10 7 4 3 2 2 1 0 0 0 0 0 0 0 0 0 0 0 0 0 0 0 0 0 0 0 0 0 0 0 0 0 0
3 8 13 14 14 15 18 19 17 14 10 6 4 3 2 1 1 1 1 1 0 0 0 0 0 0 0 0 0 0 0 0 0 0 0 0 0 0 0 0 0 0 0
6 9 13 14 14 14 15 15 14 12 9 6 4 2 1 1 2 2 2 2 1 1 1 0 0 0 0 0 0 0 0 0 0 0 0 0 0 0 0 0 0 0 0
12 13 15 16 16 15 14 13 12 11 8 5 3 1 1 1 2 2 2 2 2 2 2 1 1 0 0 0 0 0 0 0 0 0 0 0 0 0 0 0 0 0 0
16 15 15 15 15 15 14 12 11 9 5 3 2 1 1 1 1 1 1 1 1 1 2 2 1 0 0 0 0 0 0 0 0 0 0 0 0 0 0 0 0 0 0
14 12 10 9 8 8 8 7 7 5 3 1 1 1 0 0 0 0 0 0 0 0 1 2 1 0 0 0 0 0 0 0 0 0 0 0 0 0 0 0 0 0 0
8 6 4 2 1 1 2 2 2 2 1 0 0 0 0 0 0 0 0 0 0 0 0 0 0 0 0 0 0 0 0 0 0 0 0 0 0 0 0 0 0 0 0
4 3 1 1 0 0 0 0 0 0 0 0 0 0 0 0 0 0 0 0 0 0 0 0 0 0 0 0 0 0 0 0 0 0 0 0 0 0 0 0 0 0 0
1 1 0 0 0 0 0 0 0 0 0 0 0 0 0 0 0 0 0 0 0 0 0 0 0 0 0 0 0 0 0 0 0 0 0 0 0 0 0 0 0 0 0
0 0 0 0 0 0 0 0 0 0 0 0 0 0 0 0 0 0 0 0 0 0 0 0 0 0 0 0 0 0 0 0 0 0 0 0 0 0 0 0 0 0 0
0 0 0 0 0 0 0 0 0 0 0 0 0 0 0 0 0 0 0 0 0 0 0 0 0 0 0 0 0 0 0 0 0 0 0 0 0 0 0 0 0 0 0
0 0 0 0 0 0 0 0 0 0 0 0 0 0 0 0 0 0 0 0 0 0 0 0 0 0 0 0 0 0 0 0 0 0 0 0 0 0 0 0 0 0 0
0 0 0 0 0 0 0 0 0 0 0 0 0 0 0 0 0 0 0 0 0 0 0 0 0 0 0 0 0 0 0 0 0 0 0 0 0 0 0 0 0 0 0
0 0 0 0 0 0 0 0 0 0 0 0 0 0 0 0 0 0 0 0 0 0 0 0 0 0 0 0 0 0 0 0 0 0 0 0 0 0 0 0 0 0 0
0 0 0 0 0 0 0 0 0 0 0 0 0 0 0 0 0 0 0 0 0 0 0 0 0 0 0 0 0 0 0 0 0 0 0 0 0 0 0 0 0 0 0
Wind_Speed
6 7 8 9 8 8 9 10 9 8 7 6 6 5 4 4 3 3 4 4 4 4 4 3 3 3 3 2 2 2 3 2 1 3 3 3 2 0 1 2 2 3 3
7 7 8 8 8 8 9 9 9 9 8 6 5 4 5 3 3 2 3 4 4 4 4 4 3 3 3 3 3 3 2 2 2 3 3 3 4 3 1 1 2 3 2
10 10 10 10 10 10 10 10 9 8 7 7 5 4 4 3 2 2 2 2 4 4 4 4 3 3 3 2 2 3 3 2 2 2 3 3 2 2 3 1 1 2 2
8 9 10 10 10 10 9 9 8 8 7 7 7 8 6 4 4 3 3 3 3 4 4 4 4 3 3 3 2 3 2 3 2 2 1 2 3 3 0 3 2 1 2
10 10 10 10 10 10 9 9 9 7 6 6 7 7 5 4 3 3 4 3 2 3 4 4 4 4 3 3 3 3 3 3 2 1 1 2 2 2 3 1 2 3 2
10 9 9 8 8 8 8 9 9 7 7 7 6 7 7 6 5 5 4 3 2 2 3 4 4 4 3 3 3 3 3 2 3 2 2 2 2 1 2 2 1 2 3
10 10 10 9 9 9 9 9 10 8 7 7 6 6 7 7 7 6 6 4 3 3 4 4 4 3 3 4 3 3 3 3 3 2 2 2 2 2 3 3 1 1 2
9 11 11 11 10 11 11 11 11 9 8 8 6 5 6 5 4 5 5 5 5 5 5 6 5 5 5 4 4 2 2 2 2 2 2 1 1 2 2 3 3 1 2
10 11 11 11 11 11 11 12 12 10 9 8 7 6 5 5 5 5 5 4 4 5 6 6 6 6 5 5 4 3 3 3 3 3 2 1 1 1 1 2 3 4 2
10 11 11 11 11 10 10 10 11 11 9 9 8 7 6 6 6 5 5 5 5 5 6 6 7 6 6 5 5 3 3 3 3 3 3 2 2 1 1 1 2 3 4
11 11 11 10 10 9 10 11 11 10 9 9 8 7 6 6 6 5 6 6 5 5 7 7 7 7 7 6 5 5 4 5 4 4 4 4 3 2 2 1 2 2 3
10 11 11 10 9 9 10 11 11 11 10 9 8 7 6 5 6 6 6 5 5 5 6 7 7 8 7 7 7 7 7 6 6 6 5 6 4 5 4 3 3 3 3
9 9 9 9 9 9 9 9 9 10 9 8 7 6 5 5 5 5 4 4 3 4 4 5 6 7 6 6 7 7 6 6 6 6 6 6 5 6 4 5 4 4 4
6 6 6 6 7 8 8 8 8 7 7 6 6 5 4 4 3 2 1 2 2 3 3 4 5 5 5 5 5 5 6 6 6 6 6 7 7 7 7 6 6 5 5
6 6 6 5 5 5 4 5 5 5 6 6 5 4 3 2 2 2 1 1 2 2 2 3 3 3 3 3 3 4 5 5 6 6 6 7 8 9 8 6 6 5 5
9 8 8 8 7 7 7 7 7 6 7 7 5 4 3 2 2 2 2 2 1 0 1 1 2 2 2 2 3 3 3 3 5 6 6 6 7 8 9 10 9 8 7
10 10 9 9 9 8 9 9 8 9 9 8 7 6 6 5 4 4 4 4 3 2 2 1 2 2 1 1 0 1 2 1 2 3 3 4 3 3 3 5 6 7 8
11 10 10 10 9 9 10 10 10 10 10 9 8 7 6 6 5 5 4 3 3 3 3 3 3 3 2 2 2 1 1 1 2 2 2 1 2 5 4 3 4 5 6
11 10 9 10 10 9 9 11 10 10 10 9 7 6 6 6 5 5 4 3 3 3 3 2 3 3 3 4 4 3 2 2 3 3 3 2 2 5 6 4 4 6 7
11 11 10 11 11 8 9 12 10 9 8 7 6 5 5 5 5 4 3 3 3 3 3 4 3 3 3 5 6 5 3 3 3 3 3 4 4 6 6 4 4 7 8
11 11 11 10 8 7 10 11 9 7 5 5 5 5 4 4 4 3 3 4 4 4 4 5 4 4 5 6 8 7 3 2 2 2 2 3 6 8 9 7 5 10 10
11 10 11 9 7 7 9 10 7 5 5 5 5 4 4 3 3 3 3 3 3 4 3 3 3 3 3 4 5 6 5 3 1 1 2 4 9 11 12 9 10 14 11
9 8 10 9 7 6 8 8 5 5 6 6 5 4 4 4 3 3 3 2 2 2 2 2 2 2 2 3 6 6 6 5 2 2 6 9 12 12 8 10 13 10 5
8 8 9 9 7 5 6 6 4 5 6 6 4 4 4 4 4 3 2 2 2 2 2 2 2 1 2 3 3 3 4 5 4 4 7 10 11 8 9 9 7 5 5
7 7 8 8 6 5 5 4 4 5 6 5 4 4 4 3 3 3 2 2 2 3 3 2 2 2 2 3 3 3 3 3 4 4 3 3 4 4 5 5 5 5 5
7 7 7 6 5 5 4 3 4 5 5 4 4 3 3 3 3 3 4 7 6 8 8 7 5 2 2 4 6 7 8 9 8 3 3 4 4 5 5 6 6 5 5
Wind_Direction
166 160 159 162 165 154 152 153 151 146 141 139 141 141 142 146 142 150 148 131 121 107 98 95 81 82 86 82 77 75 59 37 47 66 32 7 8 67 188 175 168 186 197
158 166 163 166 168 166 160 158 158 153 154 151 150 146 143 151 154 153 147 141 132 125 116 113 105 98 90 69 58 68 76 29 45 106 89 34 359 353 357 169 165 173 171
167 169 169 169 171 174 169 168 165 158 158 149 130 119 100 93 97 138 160 162 144 134 126 123 116 110 109 101 82 78 92 68 17 78 133 136 193 301 335 342 158 168 166
168 171 174 173 177 179 171 165 167 162 158 149 147 148 148 159 182 181 177 172 158 149 142 132 123 116 116 114 107 93 97 104 55 11 38 137 153 142 18 333 331 267 188
174 175 176 175 178 177 171 167 166 164 161 156 156 153 153 167 163 159 163 172 174 171 164 149 132 129 129 129 111 102 94 103 110 81 54 56 58 90 131 210 315 332 302
175 174 175 172 175 174 171 169 166 170 169 163 164 164 164 162 157 165 172 183 190 196 189 168 153 150 150 148 141 128 119 113 109 101 98 114 112 121 128 153 247 286 294
175 177 178 178 179 178 176 173 171 174 176 174 175 177 170 165 169 174 180 180 190 204 207 184 174 168 174 171 158 144 143 143 136 140 135 129 146 161 143 133 158 297 304
177 180 182 181 184 184 181 175 176 178 181 181 186 183 173 166 175 181 182 189 198 205 199 190 187 185 181 179 169 164 177 166 164 163 157 157 179 159 157 154 143 87 330
183 181 181 183 187 188 185 181 179 181 184 186 187 189 185 181 186 189 190 195 204 209 200 192 190 192 188 185 178 188 201 192 200 203 195 197 221 190 177 166 154 149 177
182 183 186 188 190 189 186 182 181 184 186 189 192 196 196 197 197 194 203 205 206 205 191 193 192 194 195 191 186 197 209 200 215 213 212 224 233 233 203 173 175 163 165
189 188 189 192 191 188 185 187 187 185 189 194 197 199 199 201 201 203 211 211 209 199 192 192 192 195 200 197 195 208 207 210 226 229 221 232 230 232 237 210 191 186 169
194 192 187 185 185 187 186 189 190 190 194 195 195 200 200 200 205 214 217 211 211 205 196 192 194 202 206 203 202 213 213 212 222 229 228 235 233 232 232 225 227 220 203
192 189 183 185 180 180 184 187 190 193 193 188 190 195 198 197 205 215 219 211 210 212 202 192 200 209 210 209 213 214 217 218 221 221 223 231 227 236 234 229 232 233 231
168 162 165 170 168 172 175 176 185 188 179 170 171 181 191 186 189 196 197 209 205 203 199 197 201 207 210 211 216 215 219 226 230 227 225 225 220 227 229 232 232 231 237
127 131 133 133 135 134 135 134 136 137 147 144 150 165 156 150 146 140 180 199 193 197 196 193 195 205 206 213 218 227 227 228 240 243 241 238 233 232 229 234 230 226 233
108 103 100 97 96 102 106 102 102 101 103 107 108 109 105 101 90 83 76 72 69 114 138 189 187 171 182 174 194 216 239 239 246 251 252 254 250 252 249 249 246 231 232
109 102 97 93 91 89 96 98 96 95 94 93 93 89 86 83 84 85 74 66 64 76 89 95 95 121 135 108 21 285 249 262 271 274 282 290 308 316 302 289 283 269 260
103 98 97 92 87 86 87 90 88 88 88 83 80 80 83 82 75 71 68 63 63 69 67 70 77 74 50 65 63 11 355 354 332 330 339 334 2 14 2 337 319 299 289
101 96 94 94 89 86 89 89 84 86 87 86 83 79 82 82 76 72 65 57 60 53 51 65 74 69 25 39 63 83 69 47 18 12 23 47 57 19 15 359 324 308 298
98 96 92 89 86 85 90 90 86 84 83 85 87 85 85 85 78 69 61 52 60 60 63 59 59 70 58 52 62 74 70 56 32 20 22 33 17 353 352 339 313 301 297
100 97 93 88 86 87 90 89 86 85 88 88 83 78 80 89 86 68 61 70 70 63 61 66 57 61 71 68 69 78 80 76 39 2 341 331 341 336 328 318 286 277 287
103 101 98 93 85 85 89 87 83 86 82 75 70 62 56 63 77 75 63 70 83 79 71 73 61 49 56 66 68 70 63 60 59 327 308 305 317 317 313 306 290 293 298
109 106 105 99 89 85 90 90 86 81 74 64 52 41 39 36 41 64 67 62 69 81 75 75 69 36 26 30 40 39 28 19 9 308 308 311 311 312 308 299 300 305 299
115 111 106 103 99 93 92 98 93 81 72 61 45 37 37 24 24 33 52 64 62 69 68 70 66 29 18 9 3 359 356 352 344 324 313 310 307 303 296 299 303 296 285
112 111 111 111 113 105 95 92 88 78 68 55 42 35 34 32 28 29 40 62 65 114 113 105 100 73 22 331 336 345 334 324 308 312 312 314 315 315 309 304 299 299 302
112 112 114 116 118 111 98 85 84 84 74 49 32 31 29 29 36 41 40 48 67 74 82 89 94 77 41 358 1 352 341 335 332 340 323 312 309 309 309 310 308 305 302